Jacksonville NAS, FL

6:10 PM EST on February 22, 2018 (GMT -0500)
Jacksonville Naval Air Station

Weather History for KNIP - September, 2012

Change the Weather History Date:

Wednesday, September 12, 2012

  Actual Average Record
Temperature  
Mean Temperature 82 °F -  
Max Temperature 87 °F 85 °F 95 °F (2010)
Min Temperature 77 °F 72 °F 66 °F (2003)
Cooling Degree Days 17    
Growing Degree Days 32 (Base 50)    
Moisture  
Dew Point 70 °F    
Average Humidity 71    
Maximum Humidity 84    
Minimum Humidity 49    
Precipitation  
Precipitation 0.16 in - - ()
Sea Level Pressure  
Sea Level Pressure 30.16 in    
Wind  
Wind Speed 11 mph (NE)    
Max Wind Speed 20 mph    
Max Gust Speed 26 mph    
Visibility 10 miles    
Events Rain    
Averages and records for this station are not official NWS values.
T = Trace of Precipitation, MM = Missing Value Source: NWS Daily Summary

Daily Weather History Graph

Daily Weather History Graph

Search for Another Location

Airport or City:

Trip Planner

Search our weather history database for the weather conditions in past years. The results will help you decide how hot, cold, wet, or windy it might be!

Date:

Astronomy

Sep. 12, 2012 Rise Set
Actual Time 7:09 AM EDT 7:35 PM EDT
Civil Twilight 6:45 AM EDT 7:59 PM EDT
Nautical Twilight 6:17 AM EDT 8:27 PM EDT
Astronomical Twilight 5:48 AM EDT 8:56 PM EDT
Moon 3:38 AM EDT (9/12) 5:12 PM EDT (9/12)
Length of Visible Light 13h 13m
Length of Day
12h 25m
Waning Crescent, 14% of the Moon is Illuminated
Sep 12
Waning Crescent
Sep 15
New
Sep 22
First Quarter
Sep 29
Full
Oct 8
Last Quarter

Hourly Weather History & Observations

Time (EDT) Temp. Heat Index Dew Point Humidity Pressure Visibility Wind Dir Wind Speed Gust Speed Precip Events Conditions
12:53 AM 79.0 °F - 68.0 °F 69% 30.17 in 10.0 mi NE 9.2 mph - N/A   Scattered Clouds
1:53 AM 79.0 °F - 68.0 °F 69% 30.16 in 10.0 mi NE 10.4 mph - N/A   Partly Cloudy
2:53 AM 79.0 °F - 68.0 °F 69% 30.14 in 10.0 mi NE 12.7 mph - N/A   Partly Cloudy
3:53 AM 78.1 °F - 69.1 °F 74% 30.12 in 10.0 mi NE 11.5 mph - N/A   Mostly Cloudy
4:53 AM 77.0 °F - 69.1 °F 76% 30.13 in 10.0 mi ENE 8.1 mph - N/A   Mostly Cloudy
5:18 AM 77.0 °F - 69.8 °F 78% 30.14 in 10.0 mi East 5.8 mph - 0.00 in Rain Light Rain
5:53 AM 77.0 °F - 71.1 °F 82% 30.13 in 6.0 mi NNE 10.4 mph - 0.15 in Rain Light Rain
6:02 AM 77.0 °F - 71.6 °F 83% 30.15 in 10.0 mi NE 10.4 mph - 0.00 in   Overcast
7:53 AM 78.1 °F - 70.3 °F 77% 30.16 in 10.0 mi NNE 9.2 mph - N/A   Mostly Cloudy
8:53 AM 79.0 °F - 72.0 °F 79% 30.17 in 10.0 mi NNE 5.8 mph - N/A   Mostly Cloudy
9:53 AM 82.0 °F 86.3 °F 71.1 °F 69% 30.18 in 10.0 mi East 9.2 mph - N/A   Mostly Cloudy
10:53 AM 84.9 °F 88.2 °F 68.0 °F 57% 30.20 in 10.0 mi East 15.0 mph - N/A   Mostly Cloudy
11:53 AM 84.9 °F 87.1 °F 66.0 °F 53% 30.20 in 10.0 mi ENE 17.3 mph - N/A   Mostly Cloudy
12:53 PM 86.0 °F 87.6 °F 64.9 °F 49% 30.19 in 10.0 mi East 18.4 mph 26.5 mph N/A   Mostly Cloudy
1:53 PM 86.0 °F 87.6 °F 64.9 °F 49% 30.18 in 10.0 mi ENE 19.6 mph - N/A   Mostly Cloudy
2:53 PM 87.1 °F 89.2 °F 66.0 °F 49% 30.16 in 10.0 mi ENE 15.0 mph 23.0 mph N/A   Mostly Cloudy
3:53 PM 84.0 °F 87.8 °F 69.1 °F 61% 30.16 in 10.0 mi ENE 17.3 mph 23.0 mph 0.00 in   Mostly Cloudy
4:53 PM 82.0 °F 85.9 °F 70.0 °F 67% 30.15 in 10.0 mi NE 16.1 mph - N/A   Mostly Cloudy
5:53 PM 80.1 °F 82.9 °F 69.1 °F 69% 30.15 in 10.0 mi NNE 13.8 mph - N/A   Mostly Cloudy
6:30 PM 80.6 °F 84.6 °F 71.6 °F 74% 30.17 in 10.0 mi NNE 13.8 mph 26.5 mph 0.00 in Rain Light Rain
6:53 PM 79.0 °F - 72.0 °F 79% 30.15 in 10.0 mi NE 11.5 mph - 0.00 in   Mostly Cloudy
7:09 PM 78.8 °F - 71.6 °F 78% 30.16 in 6.0 mi NE 15.0 mph 21.9 mph 0.00 in Rain Light Rain
7:53 PM 78.1 °F - 73.0 °F 84% 30.15 in 8.0 mi NE 6.9 mph 20.7 mph 0.01 in Rain Light Rain
8:09 PM 78.8 °F - 73.4 °F 83% 30.16 in 10.0 mi NE 8.1 mph - 0.00 in   Mostly Cloudy
8:53 PM 78.1 °F - 73.0 °F 84% 30.16 in 10.0 mi NE 8.1 mph - 0.00 in   Scattered Clouds
9:53 PM 78.1 °F - 69.1 °F 74% 30.16 in 10.0 mi ENE 9.2 mph - N/A   Scattered Clouds
10:53 PM 78.1 °F - 70.0 °F 76% 30.17 in 10.0 mi NE 6.9 mph - N/A   Scattered Clouds
11:53 PM 78.1 °F - 72.0 °F 81% 30.17 in 10.0 mi NE 9.2 mph - N/A   Scattered Clouds